Shirley, NY

1:20 AM EST on February 26, 2017 (GMT -0500)
Brookhaven

Weather History for KHWV - April, 2014

Change the Weather History Date:

Tuesday, April 22, 2014

  Actual Average (KISP) Record (KISP)
Temperature  
Mean Temperature 51 °F -  
Max Temperature 60 °F 58 °F 75 °F (1985)
Min Temperature 43 °F 40 °F 33 °F (1984)
Degree Days  
Heating Degree Days 14    
Growing Degree Days 1 (Base 50)    
Moisture  
Dew Point 46 °F    
Average Humidity 79    
Maximum Humidity 93    
Minimum Humidity 62    
Precipitation  
Precipitation 0.02 in - - ()
Sea Level Pressure  
Sea Level Pressure 29.69 in    
Wind  
Wind Speed 7 mph (SSW)    
Max Wind Speed 16 mph    
Max Gust Speed 24 mph    
Visibility 10 miles    
Events Rain    
Averages and records for this station are not official NWS values.
T = Trace of Precipitation, MM = Missing Value Source: NWS Daily Summary

Daily Weather History Graph

Daily Weather History Graph

Search for Another Location

Airport or City:

Trip Planner

Search our weather history database for the weather conditions in past years. The results will help you decide how hot, cold, wet, or windy it might be!

Date:

Astronomy

Apr. 22, 2014 Rise Set
Actual Time 6:02 AM EDT 7:38 PM EDT
Civil Twilight 5:33 AM EDT 8:07 PM EDT
Nautical Twilight 4:58 AM EDT 8:42 PM EDT
Astronomical Twilight 4:21 AM EDT 9:19 PM EDT
Moon 1:51 AM EDT (4/22) 12:34 PM EDT (4/22)
Length of Visible Light 14h 34m
Length of Day
13h 36m
Last Quarter, 46% of the Moon is Illuminated
Apr 22
Last Quarter
Apr 29
New
May 6
First Quarter
May 14
Full
May 21
Last Quarter

Hourly Weather History & Observations

Time (EDT) Temp. Windchill Dew Point Humidity Pressure Visibility Wind Dir Wind Speed Gust Speed Precip Events Conditions
12:56 AM 46.9 °F - 43.0 °F 86% 29.89 in 10.0 mi South 4.6 mph - N/A   Clear
1:56 AM 43.0 °F 41.3 °F 39.9 °F 89% 29.87 in 10.0 mi SSW 3.5 mph - N/A   Clear
2:56 AM 43.0 °F 40.3 °F 39.9 °F 89% 29.84 in 10.0 mi SSW 4.6 mph - N/A   Clear
3:56 AM 46.0 °F - 43.0 °F 89% 29.82 in 10.0 mi Calm Calm - N/A   Clear
4:56 AM 45.0 °F 42.6 °F 42.1 °F 90% 29.80 in 10.0 mi SW 4.6 mph - N/A   Clear
5:56 AM 45.0 °F 42.6 °F 42.1 °F 90% 29.80 in 10.0 mi SSW 4.6 mph - N/A   Clear
6:56 AM 48.0 °F - 45.0 °F 89% 29.79 in 10.0 mi SW 6.9 mph - N/A   Clear
7:56 AM 53.1 °F - 46.0 °F 77% 29.77 in 10.0 mi SW 6.9 mph - N/A   Clear
8:56 AM 55.0 °F - 45.0 °F 69% 29.75 in 10.0 mi SW 12.7 mph - N/A   Clear
9:56 AM 57.0 °F - 46.0 °F 67% 29.73 in 10.0 mi SSW 11.5 mph - N/A   Clear
10:56 AM 59.0 °F - 46.9 °F 64% 29.71 in 10.0 mi South 12.7 mph - N/A   Clear
11:56 AM 59.0 °F - 46.0 °F 62% 29.69 in 10.0 mi South 11.5 mph - N/A   Clear
12:56 PM 59.0 °F - 48.0 °F 67% 29.67 in 10.0 mi South 12.7 mph - N/A   Clear
1:56 PM 59.0 °F - 48.0 °F 67% 29.65 in 10.0 mi SSW 16.1 mph - N/A   Clear
2:56 PM 57.9 °F - 48.0 °F 70% 29.62 in 10.0 mi South 16.1 mph 24.2 mph N/A   Clear
3:56 PM 59.0 °F - 48.0 °F 67% 29.60 in 10.0 mi SSW 13.8 mph 23.0 mph N/A   Clear
4:56 PM 57.0 °F - 46.9 °F 69% 29.60 in 10.0 mi SSW 12.7 mph - N/A   Scattered Clouds
5:56 PM 55.9 °F - 48.0 °F 75% 29.58 in 10.0 mi South 12.7 mph - N/A   Mostly Cloudy
6:56 PM 53.1 °F - 48.0 °F 83% 29.57 in 10.0 mi SSW 8.1 mph - 0.00 in Rain Light Rain
7:56 PM 52.0 °F - 48.0 °F 86% 29.55 in 10.0 mi SW 8.1 mph - 0.00 in   Overcast
8:56 PM 52.0 °F - 48.0 °F 86% 29.56 in 7.0 mi SW 4.6 mph - 0.01 in Rain Light Rain
9:56 PM 51.1 °F - 48.0 °F 89% 29.55 in 9.0 mi SW 4.6 mph - 0.01 in   Overcast
10:56 PM 51.1 °F - 48.9 °F 92% 29.52 in 8.0 mi SW 3.5 mph - N/A   Scattered Clouds
11:56 PM 50.0 °F - 48.0 °F 93% 29.53 in 6.0 mi SW 3.5 mph - N/A   Scattered Clouds